Home > Weather > Vejle > Past weeks

Flag for Denmark Weather for the Past 2 Weeks in Vejle, Denmark

Now
46 °F

Partly sunny.


Feels Like: 42 °F
Forecast: 41 / 46 °F
Wind: 9 mph from South

Location: Billund Lufthavn

Current Time: Feb 7, 2016 at 10:11:08 AM

Latest Report: Feb 7, 2016 at 9:20 AM


Visibility: N/A

Pressure: 29.33 "Hg

Humidity: 76%

Dew point: 39 °F

Location of VejleLocation

Historic Weather in Vejle — Graph

°F

Vejle Temperature Yesterday

Maximum temperature yesterday: 46 °F (at 7:50 AM)
Minimum temperature yesterday: 45 °F (at 12:20 AM)
Average temperature yesterday: 45 °F

High & Low Weather Summary for the Past Weeks

 TemperatureHumidityPressure
High50 °F (Jan 27, 8:50 PM)100% (Jan 23, 8:20 AM)30.36 "Hg (Jan 23, 8:20 AM)
Low28 °F (Jan 23, 8:20 AM)62% (Jan 29, 5:20 PM)29.27 "Hg (Feb 2, 6:50 PM)
Average41 °F91%29.75 "Hg
* Reported Jan 23 8:20 AM — Feb 7 8:50 AM, Vejle, Weather by CustomWeather, © 2016

Note: Actual official high and low records may vary slightly from our data, if they occured in-between our weather recording intervals... More about our weather records

Advertising

Vejle Weather History for the Previous 24 Hours

 ConditionsComfort  
Time TempWeatherWind HumidityBarometerVisibility
8:50 AM
Sun, Feb 7
45 °FPartly sunny.9 mph81%29.33 "HgN/A
8:20 AM45 °FPassing clouds.10 mph81%29.33 "HgN/A
7:50 AM43 °FPassing clouds.10 mph87%29.33 "HgN/A
7:20 AM43 °FPassing clouds.10 mph87%29.33 "HgN/A
6:50 AM45 °FPassing clouds.10 mph81%29.33 "HgN/A
6:20 AM45 °FQuite cool.10 mph81%29.36 "HgN/A
5:50 AM43 °FQuite cool.10 mph87%29.36 "HgN/A
5:20 AM43 °FQuite cool.12 mph87%29.36 "HgN/A
4:20 AM43 °FQuite cool.10 mph87%29.39 "HgN/A
3:50 AM43 °FQuite cool.12 mph87%29.39 "HgN/A
3:20 AM43 °FQuite cool.10 mph87%29.42 "HgN/A
2:20 AM43 °FQuite cool.10 mph87%29.45 "HgN/A
1:50 AM45 °FQuite cool.10 mph81%29.45 "HgN/A
1:20 AM45 °FPassing clouds.10 mph87%29.47 "HgN/A
12:50 AM45 °FPassing clouds.10 mph87%29.47 "HgN/A
12:20 AM46 °FPassing clouds.13 mph82%29.50 "HgN/A
11:50 PM
Sat, Feb 6
46 °FPassing clouds.13 mph82%29.50 "HgN/A
11:20 PM45 °FQuite cool.13 mph87%29.50 "HgN/A
10:50 PM46 °FCool.12 mph82%29.50 "HgN/A
10:20 PM46 °FPassing clouds.13 mph82%29.53 "HgN/A
9:50 PM46 °FOvercast.13 mph82%29.53 "HgN/A
9:20 PM46 °FOvercast.13 mph87%29.53 "HgN/A
8:50 PM46 °FOvercast.14 mph87%29.56 "HgN/A
8:20 PM46 °FOvercast.14 mph87%29.56 "HgN/A
7:50 PM45 °FOvercast.14 mph93%29.56 "HgN/A
7:20 PM45 °FMostly cloudy.12 mph93%29.59 "HgN/A
6:50 PM45 °FPassing clouds.10 mph93%29.59 "HgN/A
6:20 PM45 °FPassing clouds.13 mph93%29.59 "HgN/A
5:50 PM45 °FOvercast.12 mph93%29.59 "Hg6 mi
5:20 PM45 °FLow clouds.13 mph100%29.62 "Hg4 mi
4:50 PM45 °FLow clouds.12 mph100%29.62 "Hg4 mi
4:20 PM45 °FDrizzle. Low clouds.12 mph100%29.62 "Hg4 mi
3:50 PM45 °FDrizzle. Fog.13 mph100%29.62 "Hg2 mi
3:20 PM45 °FDrizzle. Low clouds.13 mph100%29.62 "Hg3 mi
2:50 PM45 °FLight rain. Fog.13 mph100%29.65 "Hg3 mi
2:20 PM46 °FDrizzle. Fog.13 mph93%29.65 "Hg4 mi
1:50 PM45 °FDrizzle. Fog.12 mph100%29.65 "Hg2 mi
1:20 PM45 °FDrizzle. Fog.16 mph100%29.68 "Hg1 mi
12:50 PM45 °FDrizzle. Fog.13 mph100%29.68 "Hg1 mi
12:20 PM45 °FDrizzle. Fog.14 mph100%29.71 "Hg1 mi
11:50 AM45 °FDrizzle. Fog.18 mph100%29.71 "Hg3 mi
11:20 AM45 °FDrizzle. Fog.15 mph100%29.71 "Hg2 mi
10:50 AM45 °FDrizzle. Low clouds.16 mph100%29.71 "Hg4 mi
10:20 AM45 °FDrizzle. Fog.16 mph100%29.71 "Hg2 mi
Weather by CustomWeather, © 2016

See weather overviewHow to use our weather pages